Location: Mount Cross
(36.6390°N, 79.4878°W)
Time: 00:19:48
(UTC+00:00)

Vanguard 2 Rocket - Pass Details

Date: 21 March 2023
Orbit: 554 x 3314 km, 32.9° (Epoch: 08 June)

Event Time Altitude Azimuth Distance (km) Brightness Sun altitude
Rises 01:02:37 0° 230° (SW) 3,773 10.6 -19.3°
Reaches altitude 10° 01:04:53 10° 223° (SW) 3,078 9.9 -19.7°
Maximum altitude 01:12:26 49° 151° (SSE) 2,087 8.4 -21.1°
Enters shadow 01:18:11 30° 98° (E) 3,205 9.1 -22.2°
